Lid_Strength_Index
2 2 2 2 2 2 3 4 5 7 7 7 8 7 8 7 8 9 9 6 5 5 4 5 5 5 5 5 5 5 4 4 3 2 0 -0 -1 -1
2 2 2 3 3 3 3 3 3 4 6 7 8 8 8 8 9 10 10 7 7 5 4 5 5 6 6 6 6 5 5 5 3 2 0 0 -1 -1
2 2 2 2 2 2 3 3 4 5 5 9 9 9 9 9 10 11 10 10 9 7 6 6 5 6 6 7 6 6 6 5 4 2 1 0 -1 -1
2 3 3 3 3 3 3 4 4 6 7 9 10 10 10 10 11 11 11 11 11 8 7 6 6 7 7 7 7 7 7 6 4 3 2 0 -1 -1
2 2 3 4 4 5 5 5 6 7 7 9 11 11 11 11 12 13 13 12 11 9 7 6 7 7 7 7 7 7 7 6 5 3 2 1 -0 -1
3 3 3 3 3 5 6 6 7 8 9 10 11 12 12 12 13 13 13 13 13 11 10 9 8 8 8 8 9 8 7 7 5 4 3 2 1 0
4 4 3 4 5 5 5 7 8 9 10 11 13 13 13 14 14 14 13 14 14 14 13 13 12 12 12 11 9 8 7 7 6 4 3 2 0 -0
6 7 7 8 7 6 6 7 8 9 11 13 14 13 14 13 14 14 14 14 14 14 14 14 14 14 13 13 9 7 7 7 6 5 3 2 1 1
8 8 8 8 7 8 7 8 8 8 9 11 13 13 13 13 13 14 14 14 13 12 13 14 14 15 14 12 9 8 8 7 6 5 4 3 2 1
8 7 8 9 9 10 10 11 12 12 12 12 11 12 12 12 11 12 12 13 12 12 12 13 15 14 14 13 10 8 7 7 6 5 5 4 3 3
9 9 9 10 9 9 11 13 14 13 11 11 10 10 9 9 11 12 13 13 13 12 13 13 13 14 15 15 14 10 8 7 6 6 6 5 5 4
10 10 8 9 8 9 12 13 14 14 13 14 13 12 11 10 9 11 13 13 13 13 12 13 14 16 16 15 15 14 13 8 8 6 6 6 6 7
9 10 9 7 7 8 10 12 12 13 12 14 15 15 15 14 13 12 12 12 12 12 12 13 15 15 19 17 16 16 15 14 13 13 9 7 7 7
9 8 8 7 7 7 9 10 9 11 14 15 15 15 15 15 15 14 13 13 12 12 12 12 14 15 22 20 18 16 17 16 16 16 15 10 8 7
8 8 7 7 7 7 8 8 8 13 14 14 15 15 15 15 15 14 14 14 14 14 13 14 14 19 21 21 19 18 17 16 16 17 15 15 14 12
7 8 8 7 7 8 8 8 12 13 13 14 14 15 15 15 15 15 17 16 18 18 15 14 14 15 15 15 19 20 19 19 16 17 15 14 13 12
8 9 10 10 9 10 10 10 12 12 13 14 15 15 14 15 15 16 17 17 20 19 18 15 14 14 16 18 18 17 19 19 19 18 14 15 15 13
9 11 10 10 10 10 10 11 12 11 13 14 14 14 15 15 16 16 16 17 19 18 17 17 20 20 19 16 15 19 19 18 19 16 15 17 15 14
8 9 10 10 10 10 10 11 11 11 12 13 14 14 14 15 15 16 16 16 17 19 21 16 23 22 22 21 16 12 20 19 18 15 15 16 17 14
7 8 9 9 10 10 11 11 11 12 12 12 13 14 15 16 16 16 16 16 16 17 20 16 16 21 20 19 20 18 12 18 17 16 17 15 14 11
7 8 8 9 10 11 11 12 12 12 12 12 13 14 15 16 16 16 16 15 15 19 19 18 16 13 22 20 18 18 17 12 14 17 17 17 17 15
8 8 9 9 10 11 11 12 12 12 12 12 13 14 14 15 15 17 17 15 14 16 18 20 18 15 15 17 20 21 18 16 13 11 11 12 16 19
8 8 8 9 10 11 11 11 11 11 11 12 13 13 15 15 15 14 14 14 14 16 18 18 17 15 14 14 14 14 14 14 15 14 14 10 9 9